Wind_Speed
31 30 28 26 24 22 22 23 23 25 26 27 28 29 30 31 32 33 33 34 36 36 36 35 34 34 36 34 30 28 30 33 36
35 33 31 28 25 25 26 27 26 27 28 29 27 28 31 30 32 32 34 36 38 37 35 34 33 33 29 24 25 29 34 36 36
39 36 35 32 28 28 28 30 30 30 28 30 29 29 29 31 32 33 35 36 37 36 34 32 30 24 21 24 29 33 36 38 37
42 39 38 37 33 32 31 31 31 33 33 32 29 29 30 32 32 34 35 36 35 32 31 28 19 18 22 27 31 32 33 38 39
44 41 39 37 35 31 31 33 34 36 35 32 30 31 31 32 34 35 35 36 35 31 30 19 16 20 24 29 26 28 37 41 45
45 42 41 38 36 34 34 37 38 36 33 32 33 34 35 35 38 37 36 35 32 28 23 16 17 22 26 22 19 27 38 41 42
46 44 42 39 39 35 35 37 36 34 32 34 36 37 38 41 42 38 34 34 29 25 21 19 21 24 23 14 20 27 36 41 53
47 47 44 43 41 37 37 37 35 34 34 36 39 41 41 42 38 37 30 31 24 22 21 19 21 23 15 14 21 26 32 30 42
48 49 47 43 39 37 39 39 40 37 38 38 42 42 42 40 37 30 27 23 20 20 19 21 22 18 12 16 21 26 30 34 45
50 50 49 46 41 40 40 39 40 40 38 39 42 43 40 39 35 26 23 20 19 19 22 20 14 11 10 11 23 27 27 36 41
53 53 51 47 42 41 43 41 40 37 39 40 41 41 43 38 32 27 21 20 18 16 16 17 9 11 6 12 17 30 29 30 35
52 53 53 49 45 43 44 40 39 39 40 36 39 39 36 32 28 24 20 19 18 14 15 12 5 8 8 8 17 27 33 37 30
57 55 58 50 47 44 44 42 40 41 40 38 35 37 37 32 26 23 22 19 19 15 15 9 10 2 5 10 16 25 32 45 29
60 61 60 55 51 47 45 41 40 39 39 36 36 40 38 32 25 23 23 21 20 19 19 14 16 12 11 10 23 30 32 38 43
70 68 64 59 52 49 45 41 39 39 40 36 38 38 37 28 23 24 25 24 23 23 22 20 17 22 21 21 26 29 30 42 45
73 67 61 58 53 51 46 43 40 39 42 35 38 34 33 26 25 25 25 25 26 27 27 23 19 22 25 27 32 29 28 36 46
68 64 60 57 54 51 47 44 41 43 41 38 39 33 30 24 27 26 25 26 25 24 23 21 22 27 30 34 36 34 34 38 45
68 64 58 54 53 51 48 46 43 44 44 40 37 33 29 27 31 26 25 25 24 22 21 19 22 26 29 35 39 39 41 42 46
66 62 61 57 57 54 52 48 46 46 45 41 38 34 35 35 35 34 30 27 28 28 26 26 29 29 30 33 39 42 44 44 42
67 63 60 60 58 57 53 50 48 45 44 41 40 36 38 42 38 34 37 34 33 31 33 32 33 34 36 39 39 46 44 48 46
Wind_Direction
245 246 249 253 259 264 269 274 279 286 291 302 308 308 305 306 309 313 318 320 323 322 320 318 315 311 310 310 313 314 322 324 321
250 251 253 255 261 266 274 276 282 289 297 302 306 303 304 305 308 312 314 319 322 322 321 318 315 312 314 320 323 327 327 322 322
250 253 257 260 263 269 276 282 289 294 299 300 303 300 303 305 307 312 318 319 321 321 319 318 315 319 327 328 328 330 328 325 328
253 256 260 262 265 272 278 282 289 293 297 298 298 302 303 307 310 312 318 321 323 321 320 318 322 325 329 331 335 338 332 328 329
256 257 260 264 267 274 277 282 287 291 294 296 299 302 305 306 310 313 318 318 321 322 317 319 322 334 340 339 354 351 345 343 340
254 259 258 260 264 273 277 283 287 289 293 296 298 303 305 307 311 311 315 319 320 321 319 316 325 336 339 357 0 360 5 6 359
251 253 256 257 264 271 277 283 288 291 293 293 303 305 306 305 307 307 312 318 316 321 317 316 322 329 348 4 13 15 19 20 32
249 251 249 256 265 272 277 282 285 286 289 297 303 305 304 303 301 305 305 312 309 314 311 311 325 331 355 357 0 5 14 15 29
246 247 249 254 265 270 274 281 285 285 289 299 304 305 301 305 300 301 300 302 302 308 303 312 322 332 349 355 360 21 33 32 39
243 241 247 258 263 268 271 278 282 286 292 301 306 305 304 305 300 291 290 295 302 301 306 311 322 341 348 9 24 22 24 35 37
240 242 248 255 263 267 272 278 283 287 295 299 303 303 304 299 291 287 283 287 296 305 313 324 310 11 344 38 26 13 7 360 36
236 239 247 255 263 264 270 276 280 284 292 295 301 305 306 298 286 276 278 281 288 291 307 324 271 22 69 29 8 14 3 355 5
237 241 248 255 261 261 268 274 277 283 289 290 294 302 308 296 280 273 274 277 284 285 292 306 259 277 48 12 6 4 9 3 358
234 241 249 257 260 262 266 270 276 282 282 283 289 298 305 294 278 274 274 276 277 283 287 294 256 255 280 318 356 352 5 6 9
238 242 251 257 258 260 261 265 271 276 277 281 287 293 300 287 277 274 275 277 279 282 279 286 276 256 273 296 323 340 338 344 344
244 249 251 254 254 257 258 262 266 271 274 276 286 290 294 279 279 276 276 278 282 284 279 276 270 261 272 290 300 320 321 323 349
244 248 251 252 253 252 254 259 261 268 270 272 282 287 281 274 277 282 281 284 287 293 282 272 261 261 270 279 293 310 319 322 323
244 247 249 250 251 250 251 255 257 261 267 271 275 283 267 268 274 287 289 282 287 293 301 288 277 284 295 299 305 309 313 317 322
245 244 248 250 252 250 252 253 254 257 264 266 272 273 268 269 270 279 288 284 283 283 288 292 293 289 292 301 315 318 319 327 329
246 245 250 250 251 248 248 246 250 256 259 260 269 262 268 269 275 283 286 288 290 285 279 296 309 305 302 306 311 311 319 329 331
Height
10865 10867 10868 10870 10871 10872 10873 10874 10875 10875 10875 10874 10873 10873 10872 10871 10869 10866 10863 10859 10856 10851 10847 10844 10840 10835 10830 10826 10822 10818 10815 10810 10805
10861 10862 10864 10865 10867 10868 10869 10869 10870 10870 10870 10870 10869 10869 10867 10866 10863 10861 10859 10855 10852 10847 10843 10839 10835 10830 10826 10822 10818 10815 10811 10804 10797
10857 10858 10861 10862 10864 10864 10865 10864 10864 10865 10865 10866 10865 10864 10863 10861 10858 10857 10855 10851 10847 10843 10839 10835 10830 10826 10822 10819 10816 10811 10804 10796 10791
10852 10854 10856 10858 10859 10860 10860 10859 10860 10860 10861 10861 10861 10860 10858 10856 10855 10853 10851 10847 10843 10839 10835 10831 10827 10823 10821 10817 10813 10807 10799 10792 10787
10847 10849 10851 10852 10854 10855 10854 10855 10856 10856 10856 10856 10856 10855 10853 10852 10850 10848 10846 10843 10840 10836 10832 10828 10824 10821 10818 10815 10811 10804 10797 10789 10782
10841 10843 10845 10847 10848 10849 10849 10849 10850 10850 10851 10851 10851 10850 10849 10847 10844 10843 10841 10838 10836 10832 10828 10825 10822 10818 10816 10812 10807 10803 10797 10789 10779
10835 10836 10838 10840 10842 10843 10843 10843 10844 10845 10846 10846 10846 10844 10843 10841 10839 10837 10836 10834 10831 10828 10826 10823 10820 10816 10814 10809 10806 10802 10797 10791 10779
10828 10829 10831 10834 10836 10837 10837 10838 10838 10840 10841 10839 10839 10838 10836 10835 10833 10832 10830 10829 10827 10825 10823 10820 10817 10814 10811 10807 10804 10801 10796 10791 10782
10821 10822 10824 10827 10829 10830 10831 10832 10833 10834 10834 10833 10833 10831 10829 10829 10828 10827 10825 10824 10823 10822 10819 10817 10814 10811 10808 10805 10802 10798 10794 10789 10781
10812 10814 10816 10820 10823 10824 10825 10826 10827 10828 10827 10827 10826 10824 10822 10822 10822 10821 10820 10820 10819 10818 10815 10814 10811 10807 10805 10802 10800 10796 10792 10786 10779
10804 10807 10809 10812 10816 10818 10819 10820 10820 10821 10820 10821 10821 10819 10816 10815 10816 10816 10816 10815 10814 10813 10812 10810 10807 10804 10801 10799 10797 10793 10789 10785 10777
10796 10798 10801 10806 10808 10810 10812 10814 10813 10814 10814 10814 10815 10814 10811 10810 10810 10810 10811 10810 10809 10809 10808 10807 10804 10801 10798 10796 10792 10788 10786 10781 10777
10787 10789 10792 10798 10801 10803 10805 10807 10807 10808 10808 10808 10809 10808 10806 10804 10805 10805 10805 10805 10804 10804 10803 10803 10801 10799 10795 10792 10788 10785 10782 10778 10772
10778 10780 10785 10790 10793 10796 10798 10799 10800 10801 10801 10801 10802 10802 10800 10799 10799 10800 10800 10799 10799 10799 10798 10798 10797 10795 10791 10788 10785 10782 10778 10775 10770
10768 10773 10777 10781 10785 10789 10791 10791 10793 10794 10794 10795 10795 10795 10794 10793 10794 10794 10794 10794 10794 10793 10792 10791 10791 10789 10787 10784 10781 10779 10774 10771 10765
10760 10765 10769 10773 10776 10780 10783 10783 10785 10787 10786 10787 10788 10788 10788 10788 10789 10789 10789 10788 10788 10786 10786 10786 10785 10783 10781 10779 10776 10776 10771 10767 10764
10750 10755 10760 10764 10767 10770 10774 10775 10776 10778 10779 10780 10781 10781 10782 10782 10783 10784 10783 10783 10782 10781 10779 10779 10779 10778 10776 10773 10771 10770 10768 10763 10761
10741 10746 10749 10753 10757 10760 10764 10766 10767 10769 10771 10773 10773 10774 10775 10776 10777 10777 10777 10777 10777 10776 10775 10775 10774 10774 10773 10770 10768 10765 10763 10759 10756
10730 10734 10739 10742 10746 10750 10754 10757 10757 10759 10762 10764 10766 10767 10768 10768 10769 10771 10771 10771 10771 10770 10769 10768 10768 10767 10766 10764 10761 10759 10756 10752 10749
10720 10724 10727 10731 10734 10739 10743 10746 10748 10750 10753 10755 10757 10758 10760 10760 10761 10763 10764 10764 10764 10762 10761 10761 10760 10760 10759 10756 10755 10752 10747 10744 10740